TimeCDT,TemperatureF,Dew PointF,Humidity,Sea Level PressureIn,VisibilityMPH,Wind Direction,Wind SpeedMPH,Gust SpeedMPH,PrecipitationIn,Events,Conditions,WindDirDegrees,DateUTC
12:15 AM,51.8,46.6,82,30.08,10.0,Calm,Calm,-,N/A,,Unknown,0,2013-09-15 05:15:00
12:35 AM,52.3,47.3,83,30.08,10.0,East,3.5,-,N/A,,Unknown,100,2013-09-15 05:35:00
12:55 AM,50.9,46.4,85,30.08,10.0,Calm,Calm,-,N/A,,Unknown,0,2013-09-15 05:55:00
1:15 AM,50.7,46.2,85,30.08,10.0,Calm,Calm,-,N/A,,Unknown,0,2013-09-15 06:15:00
1:35 AM,51.6,47.1,85,30.08,10.0,Calm,Calm,-,N/A,,Unknown,0,2013-09-15 06:35:00
1:55 AM,49.8,45.7,86,30.08,10.0,Calm,Calm,-,N/A,,Unknown,0,2013-09-15 06:55:00
2:15 AM,49.6,45.9,87,30.07,10.0,Calm,Calm,-,N/A,,Unknown,0,2013-09-15 07:15:00
2:35 AM,50.0,46.4,87,30.07,10.0,Calm,Calm,-,N/A,,Unknown,0,2013-09-15 07:35:00
2:55 AM,50.4,46.4,86,30.06,10.0,Calm,Calm,-,N/A,,Unknown,0,2013-09-15 07:55:00
3:15 AM,49.5,45.9,87,30.07,10.0,Calm,Calm,-,N/A,,Unknown,0,2013-09-15 08:15:00
3:35 AM,50.4,46.8,87,30.06,10.0,Calm,Calm,-,N/A,,Unknown,0,2013-09-15 08:35:00
3:55 AM,51.4,47.7,87,30.06,10.0,Calm,Calm,-,N/A,,Unknown,0,2013-09-15 08:55:00
4:15 AM,49.5,45.7,87,30.07,10.0,Calm,Calm,-,N/A,,Unknown,0,2013-09-15 09:15:00
4:35 AM,49.6,46.2,88,30.07,10.0,Calm,Calm,-,N/A,,Unknown,0,2013-09-15 09:35:00
4:55 AM,52.5,48.4,86,30.07,7.0,Calm,Calm,-,N/A,,Unknown,0,2013-09-15 09:55:00
5:15 AM,53.8,49.3,85,30.06,10.0,SE,4.6,-,N/A,,Unknown,140,2013-09-15 10:15:00
5:35 AM,54.0,49.1,84,30.07,10.0,SSE,3.5,-,N/A,,Unknown,150,2013-09-15 10:35:00
5:55 AM,51.6,47.5,86,30.07,10.0,Calm,Calm,-,N/A,,Unknown,0,2013-09-15 10:55:00
6:15 AM,49.8,46.6,89,30.08,10.0,Calm,Calm,-,N/A,,Unknown,0,2013-09-15 11:15:00
6:35 AM,50.2,47.3,90,30.08,10.0,Calm,Calm,-,N/A,,Unknown,0,2013-09-15 11:35:00
6:55 AM,52.3,49.5,90,30.08,10.0,ESE,3.5,-,N/A,,Unknown,120,2013-09-15 11:55:00
7:15 AM,54.7,50.5,86,30.09,10.0,Calm,Calm,-,N/A,,Unknown,0,2013-09-15 12:15:00
7:35 AM,54.7,50.9,87,30.08,10.0,Calm,Calm,-,N/A,,Unknown,0,2013-09-15 12:35:00
7:55 AM,57.0,52.5,85,30.08,10.0,SSE,4.6,-,N/A,,Unknown,160,2013-09-15 12:55:00
8:15 AM,61.5,53.2,74,30.09,7.0,South,4.6,-,N/A,,Unknown,180,2013-09-15 13:15:00
8:35 AM,64.6,53.6,68,30.09,10.0,South,6.9,-,N/A,,Unknown,190,2013-09-15 13:35:00
8:55 AM,66.9,53.6,62,30.09,10.0,South,5.8,-,N/A,,Unknown,190,2013-09-15 13:55:00
9:15 AM,68.9,54.0,59,30.10,10.0,SW,5.8,-,N/A,,Unknown,220,2013-09-15 14:15:00
9:35 AM,70.2,53.8,56,30.11,10.0,SSW,5.8,-,N/A,,Unknown,210,2013-09-15 14:35:00
9:55 AM,72.1,53.8,52,30.11,10.0,SSW,6.9,-,N/A,,Unknown,200,2013-09-15 14:55:00
10:15 AM,72.9,53.6,51,30.10,10.0,South,8.1,-,N/A,,Unknown,190,2013-09-15 15:15:00
10:35 AM,73.9,54.0,50,30.09,10.0,South,8.1,-,N/A,,Unknown,180,2013-09-15 15:35:00
10:55 AM,74.3,53.2,48,30.09,10.0,South,8.1,-,N/A,,Unknown,170,2013-09-15 15:55:00
11:15 AM,75.2,52.9,46,30.09,10.0,SW,6.9,-,N/A,,Unknown,220,2013-09-15 16:15:00
11:35 AM,75.9,52.3,44,30.09,10.0,SW,4.6,-,N/A,,Unknown,230,2013-09-15 16:35:00
11:55 AM,77.0,50.5,39,30.08,10.0,South,8.1,-,N/A,,Unknown,180,2013-09-15 16:55:00
12:15 PM,78.3,50.5,38,30.08,10.0,WSW,4.6,-,N/A,,Unknown,240,2013-09-15 17:15:00
12:35 PM,78.1,49.5,37,30.08,10.0,SSE,6.9,-,N/A,,Unknown,160,2013-09-15 17:35:00
12:55 PM,79.5,50.2,36,30.08,10.0,South,10.4,-,N/A,,Unknown,170,2013-09-15 17:55:00
1:15 PM,79.9,49.3,34,30.07,10.0,SW,8.1,-,N/A,,Unknown,220,2013-09-15 18:15:00
1:35 PM,80.8,50.2,34,30.06,10.0,SW,8.1,-,N/A,,Clear,220,2013-09-15 18:35:00
1:55 PM,81.5,50.2,34,30.05,10.0,SW,5.8,-,N/A,,Clear,220,2013-09-15 18:55:00
2:15 PM,82.2,50.5,33,30.05,10.0,WSW,9.2,-,N/A,,Clear,240,2013-09-15 19:15:00
2:35 PM,82.6,47.7,29,30.04,10.0,SSW,9.2,-,N/A,,Unknown,210,2013-09-15 19:35:00
2:55 PM,82.9,47.7,29,30.04,10.0,SSW,4.6,-,N/A,,Unknown,200,2013-09-15 19:55:00
3:15 PM,84.2,48.6,29,30.04,10.0,South,8.1,-,N/A,,Unknown,190,2013-09-15 20:15:00
3:35 PM,84.0,48.4,29,30.04,10.0,SSW,6.9,-,N/A,,Unknown,210,2013-09-15 20:35:00
3:55 PM,82.9,49.5,31,30.04,10.0,South,8.1,-,N/A,,Unknown,170,2013-09-15 20:55:00
4:15 PM,82.6,50.7,33,30.03,10.0,South,8.1,-,N/A,,Unknown,190,2013-09-15 21:15:00
4:35 PM,82.6,50.7,33,30.03,10.0,South,8.1,-,N/A,,Unknown,180,2013-09-15 21:35:00
4:55 PM,82.4,50.7,33,30.03,10.0,SSW,8.1,-,N/A,,Unknown,200,2013-09-15 21:55:00
5:15 PM,81.9,51.6,35,30.02,10.0,South,9.2,-,N/A,,Unknown,170,2013-09-15 22:15:00
5:35 PM,81.7,51.8,35,30.03,10.0,South,8.1,-,N/A,,Unknown,190,2013-09-15 22:35:00
5:55 PM,80.1,52.9,39,30.02,10.0,South,6.9,-,N/A,,Unknown,170,2013-09-15 22:55:00
6:15 PM,79.7,54.1,41,30.02,10.0,SSE,5.8,-,N/A,,Unknown,160,2013-09-15 23:15:00
6:35 PM,78.3,55.0,45,30.01,10.0,South,6.9,-,N/A,,Unknown,170,2013-09-15 23:35:00
6:55 PM,77.7,55.4,46,30.02,10.0,South,5.8,-,N/A,,Unknown,180,2013-09-15 23:55:00
7:15 PM,77.0,55.8,48,30.02,10.0,South,4.6,-,N/A,,Unknown,180,2013-09-16 00:15:00
7:35 PM,75.9,56.5,51,30.03,10.0,Calm,Calm,-,N/A,,Unknown,0,2013-09-16 00:35:00
7:55 PM,74.5,57.2,55,30.03,10.0,South,3.5,-,N/A,,Unknown,190,2013-09-16 00:55:00
8:15 PM,73.4,57.6,58,30.04,10.0,Calm,Calm,-,N/A,,Unknown,0,2013-09-16 01:15:00
8:35 PM,72.9,57.7,59,30.05,10.0,South,3.5,-,N/A,,Unknown,180,2013-09-16 01:35:00
8:55 PM,72.3,58.3,61,30.05,10.0,Calm,Calm,-,N/A,,Unknown,0,2013-09-16 01:55:00
9:15 PM,70.3,59.0,67,30.05,10.0,Calm,Calm,-,N/A,,Unknown,0,2013-09-16 02:15:00
9:35 PM,69.1,59.0,70,30.05,10.0,Calm,Calm,-,N/A,,Unknown,0,2013-09-16 02:35:00
9:55 PM,69.8,59.4,69,30.05,10.0,Calm,Calm,-,N/A,,Unknown,0,2013-09-16 02:55:00
10:15 PM,71.8,57.6,61,30.05,10.0,SSW,3.5,-,N/A,,Unknown,200,2013-09-16 03:15:00
10:35 PM,73.4,57.2,57,30.06,10.0,SSW,5.8,-,N/A,,Unknown,210,2013-09-16 03:35:00
10:55 PM,71.8,57.2,60,30.06,10.0,WSW,5.8,-,N/A,,Unknown,240,2013-09-16 03:55:00
11:15 PM,72.5,57.4,59,30.07,10.0,WNW,4.6,-,N/A,,Unknown,290,2013-09-16 04:15:00
11:35 PM,71.6,58.3,63,30.07,10.0,Calm,Calm,-,N/A,,Unknown,0,2013-09-16 04:35:00
11:55 PM,71.4,58.6,64,30.08,10.0,NNW,5.8,-,N/A,,Unknown,340,2013-09-16 04:55:00